Preview of NWS' New Version of Forecast
This preview is not operational and should not be used for support decisions.

Regional Weather Roundup (RWR)

Issued by National Weather Service (NWS)

                            
000
ASUS45 KCYS 241010
RWRWY 

WYOMING REGIONAL WEATHER ROUNDUP
NATIONAL WEATHER SERVICE CHEYENNE WY
400 AM MDT MON JUN 24 2019

NOTE:  "FAIR" INDICATES FEW OR NO CLOUDS BELOW 12,000 FEET
WITH NO SIGNIFICANT WEATHER AND/OR OBSTRUCTIONS TO VISIBILITY.

WYZ001-241100-
YELLOWSTONE NATIONAL PARK
  
CITY           SKY/WX    TMP DP  RH WIND       PRES   REMARKS
LK YELLOWSTONE   N/A     43  29  57 W7        30.05S                  
W YELLOWSTONE  NOT AVBL                                               

$$
WYZ002>013-054>058-071-098>099-241100-
NORTHERN WYOMING
  
CITY           SKY/WX    TMP DP  RH WIND       PRES   REMARKS
JACKSON        FAIR      48  30  49 S13       30.01R                  
CODY           CLOUDY    54  41  61 NW5       29.92S                  
GREYBULL       CLOUDY    59  43  55 W7        29.84S                  
WORLAND        FAIR      50  41  71 CALM      29.83F                  
SHERIDAN       CLOUDY    56  47  71 W5        29.87S                  
BUFFALO        MOCLDY    53  44  71 NW5       29.90S                  
GILLETTE       CLOUDY    53  46  77 CALM      29.87F                  
HULETT         FAIR      50  45  81 SW9       29.87                   
NEWCASTLE      FAIR      46  41  81 NE6       29.89                   

$$
WYZ014>020-022>026-101>103-241100-
CENTRAL WYOMING
  
CITY           SKY/WX    TMP DP  RH WIND       PRES   REMARKS
BIG PINEY      FAIR      37  30  75 CALM      30.07S                  
PINEDALE       FAIR      36  32  87 NW3       30.08                   
DUBOIS         FAIR      41  32  70 NW12      30.00                   
LANDER         FAIR      57  33  40 SW3       29.91S                  
RIVERTON       FAIR      50  36  58 W6        29.91F                  
CASPER         MOCLDY    48  45  89 NW5       29.92F                  
DOUGLAS        MOCLDY    51  48  89 CALM      29.92F                  

$$
WYZ021-027>030-104>119-241100-
SOUTHERN WYOMING
  
CITY           SKY/WX    TMP DP  RH WIND       PRES   REMARKS
EVANSTON       MOCLDY    45  28  51 SW8       30.11R                  
KEMMERER       FAIR      43  30  61 CALM      30.10                   
ROCK SPRINGS   FAIR      52  28  39 SW15      30.05F                  
DIXON          CLOUDY    46  40  78 E12G23    30.12S                  
RAWLINS        FAIR      50  33  52 SW18      30.04F                  
SARATOGA       CLOUDY    46  36  66 S3        30.08S                  
LARAMIE        MOCLDY    42  35  76 S5        30.06S                  
CHEYENNE         N/A    N/A N/A N/A MISG        N/A                   
TORRINGTON     FAIR      45  43  93 CALM      29.89S                  
PINE BLUFFS    FAIR      43  43 100 SW5       29.98R                  

$$